Mesquite, TX

1:07 PM CDT on June 22, 2017 (GMT -0500)
Mesquite Metro

Weather History for KHQZ - May, 2014

Change the Weather History Date:

Thursday, May 15, 2014

  Actual Average (KDFW) Record (KDFW)
Temperature  
Mean Temperature 63 °F -  
Max Temperature 81 °F 81 °F 94 °F (1993)
Min Temperature 46 °F 62 °F 44 °F (1907)
Degree Days  
Heating Degree Days 2    
Growing Degree Days 13 (Base 50)    
Moisture  
Dew Point 44 °F    
Average Humidity 63    
Maximum Humidity 93    
Minimum Humidity 17    
Precipitation  
Precipitation 0.00 in - - ()
Sea Level Pressure  
Sea Level Pressure 30.19 in    
Wind  
Wind Speed 4 mph (South)    
Max Wind Speed 12 mph    
Max Gust Speed 18 mph    
Visibility 10 miles    
Events      
Averages and records for this station are not official NWS values.
T = Trace of Precipitation, MM = Missing Value Source: NWS Daily Summary

Daily Weather History Graph

Daily Weather History Graph

Search for Another Location

Airport or City:

Trip Planner

Search our weather history database for the weather conditions in past years. The results will help you decide how hot, cold, wet, or windy it might be!

Date:

Astronomy

May. 15, 2014 Rise Set
Actual Time 6:27 AM CDT 8:18 PM CDT
Civil Twilight 6:00 AM CDT 8:45 PM CDT
Nautical Twilight 5:27 AM CDT 9:18 PM CDT
Astronomical Twilight 4:52 AM CDT 9:53 PM CDT
Moon 9:27 PM CDT (5/15) 7:14 AM CDT (5/15)
Length of Visible Light 14h 45m
Length of Day
13h 50m
Full, 99% of the Moon is Illuminated
May 15
Full
May 21
Last Quarter
May 28
New
Jun 5
First Quarter
Jun 12
Full

Hourly Weather History & Observations

Time (CDT) Temp. Windchill Dew Point Humidity Pressure Visibility Wind Dir Wind Speed Gust Speed Precip Events Conditions
12:15 AM 53.8 °F - 46.6 °F 77% 30.26 in 10.0 mi Calm Calm - N/A   Clear
12:35 AM 52.9 °F - 47.3 °F 81% 30.25 in 10.0 mi Calm Calm - N/A   Clear
12:55 AM 52.5 °F - 46.0 °F 79% 30.25 in 10.0 mi Calm Calm - N/A   Clear
1:15 AM 51.6 °F - 46.2 °F 82% 30.25 in 10.0 mi South 4.6 mph - N/A   Clear
1:35 AM 50.9 °F - 46.8 °F 86% 30.25 in 10.0 mi South 3.5 mph - N/A   Clear
1:55 AM 50.0 °F - 46.4 °F 87% 30.24 in 10.0 mi South 3.5 mph - N/A   Clear
2:15 AM 49.6 °F - 46.6 °F 89% 30.24 in 10.0 mi SSW 4.6 mph - N/A   Clear
2:35 AM 51.3 °F - 46.6 °F 84% 30.24 in 10.0 mi Calm Calm - N/A   Clear
2:55 AM 50.5 °F - 46.4 °F 86% 30.24 in 10.0 mi South 3.5 mph - N/A   Clear
3:15 AM 49.1 °F - 46.0 °F 89% 30.24 in 10.0 mi SSW 4.6 mph - N/A   Clear
3:35 AM 48.6 °F - 45.7 °F 90% 30.24 in 10.0 mi SSW 4.6 mph - N/A   Clear
3:55 AM 48.0 °F - 45.3 °F 90% 30.24 in 10.0 mi South 3.5 mph - N/A   Clear
4:15 AM 47.5 °F - 45.1 °F 92% 30.24 in 10.0 mi SSW 4.6 mph - N/A   Clear
4:35 AM 47.5 °F - 44.8 °F 90% 30.24 in 10.0 mi SSW 4.6 mph - N/A   Clear
4:55 AM 47.8 °F - 45.1 °F 90% 30.23 in 10.0 mi SSW 4.6 mph - N/A   Clear
5:15 AM 47.3 °F - 45.0 °F 92% 30.23 in 10.0 mi South 4.6 mph - N/A   Clear
5:35 AM 46.4 °F 45.2 °F 44.6 °F 93% 30.23 in 10.0 mi South 3.5 mph - N/A   Clear
7:55 AM 53.6 °F - 48.2 °F 82% 30.25 in 10.0 mi North - - N/A   Clear
8:55 AM 59.0 °F - 46.4 °F 63% 30.26 in 10.0 mi North - - N/A   Clear
9:55 AM 64.4 °F - 46.4 °F 52% 30.25 in 10.0 mi South 11.5 mph 18.4 mph N/A   Clear
10:55 AM 69.8 °F - 46.4 °F 43% 30.24 in 10.0 mi North - - N/A   Clear
11:55 AM 73.4 °F - 44.6 °F 36% 30.02 in 10.0 mi North - - N/A   Clear
12:55 PM 75.2 °F - 41.0 °F 29% 30.18 in 10.0 mi North - - N/A   Clear
2:48 PM 78.8 °F - 35.6 °F 21% 30.15 in 10.0 mi West 11.5 mph - N/A   Clear
3:50 PM 78.8 °F - 30.2 °F 17% 30.12 in 10.0 mi West 11.5 mph - N/A   Unknown
4:51 PM 80.6 °F - 32.0 °F 17% 30.09 in 10.0 mi West 11.5 mph - N/A   Clear
5:50 PM 80.6 °F - 33.8 °F 18% 30.07 in 10.0 mi North - - N/A   Clear
7:50 PM 75.2 °F - 42.8 °F 31% 30.07 in 10.0 mi North - - N/A   Clear
9:55 PM 66.2 °F - 45.0 °F 46% 30.11 in 10.0 mi NNE 3.5 mph - N/A   Clear
10:15 PM 64.0 °F - 46.8 °F 53% 30.12 in 10.0 mi NE 5.8 mph - N/A   Clear
10:35 PM 65.8 °F - 43.9 °F 45% 30.13 in 10.0 mi ENE 6.9 mph - N/A   Clear
10:55 PM 65.3 °F - 43.9 °F 46% 30.13 in 10.0 mi ENE 8.1 mph - N/A   Clear
11:15 PM 64.6 °F - 43.7 °F 47% 30.14 in 10.0 mi ENE 6.9 mph - N/A   Clear
11:35 PM 63.9 °F - 43.5 °F 48% 30.14 in 10.0 mi NE 3.5 mph - N/A   Clear
11:55 PM 63.3 °F - 43.9 °F 49% 30.13 in 10.0 mi ENE 5.8 mph - N/A   Clear